Time,TemperatureF,DewpointF,PressureIn,WindDirection,WindDirectionDegrees,WindSpeedMPH,WindSpeedGustMPH,Humidity,HourlyPrecipIn,Conditions,Clouds,dailyrainin,SoftwareType,DateUTC
2013-02-04 00:03:00,17.0,12.0,29.99,WNW,288,7.0,16.0,80,0.00,,,0.00,,2013-02-04 05:03:00,
2013-02-04 00:12:00,17.0,12.0,29.99,WNW,288,7.0,16.0,80,0.00,,,0.00,,2013-02-04 05:12:00,
2013-02-04 00:22:00,17.0,12.0,30.00,West,270,7.0,14.0,80,0.00,,,0.00,,2013-02-04 05:22:00,
2013-02-04 00:33:00,17.0,12.0,30.00,WNW,283,5.0,14.0,80,0.00,,,0.00,,2013-02-04 05:33:00,
2013-02-04 00:42:00,17.0,12.0,30.00,WNW,283,5.0,14.0,80,0.00,,,0.00,,2013-02-04 05:42:00,
2013-02-04 00:52:00,17.0,12.0,30.00,West,276,8.0,15.0,80,0.00,,,0.00,,2013-02-04 05:52:00,
2013-02-04 01:02:00,17.0,12.0,30.00,West,259,6.0,12.0,81,0.00,,,0.00,,2013-02-04 06:02:00,
2013-02-04 01:11:00,17.0,12.0,30.00,West,259,6.0,12.0,81,0.00,,,0.00,,2013-02-04 06:11:00,
2013-02-04 01:21:00,17.0,12.0,30.00,WNW,296,8.0,13.0,82,0.00,,,0.00,,2013-02-04 06:21:00,
2013-02-04 01:32:00,17.0,12.0,30.00,NW,304,9.0,13.0,82,0.00,,,0.00,,2013-02-04 06:32:00,
2013-02-04 01:42:00,17.0,12.0,30.00,NW,304,9.0,13.0,82,0.00,,,0.00,,2013-02-04 06:42:00,
2013-02-04 01:52:00,17.0,12.0,30.00,West,278,3.0,18.0,82,0.00,,,0.00,,2013-02-04 06:52:00,
2013-02-04 02:02:00,17.0,13.0,30.00,West,272,9.0,13.0,83,0.00,,,0.00,,2013-02-04 07:02:00,
2013-02-04 02:11:00,17.0,13.0,30.00,West,272,9.0,13.0,83,0.00,,,0.00,,2013-02-04 07:11:00,
2013-02-04 02:21:00,17.0,12.0,30.00,WNW,294,9.0,15.0,82,0.00,,,0.00,,2013-02-04 07:21:00,
2013-02-04 02:32:00,17.0,12.0,29.98,WSW,246,7.0,13.0,82,0.00,,,0.00,,2013-02-04 07:32:00,
2013-02-04 02:42:00,17.0,12.0,29.98,WSW,246,7.0,13.0,82,0.00,,,0.00,,2013-02-04 07:42:00,
2013-02-04 02:52:00,17.0,12.0,29.98,SW,232,5.0,11.0,81,0.00,,,0.00,,2013-02-04 07:52:00,
2013-02-04 03:01:00,17.0,12.0,29.98,West,272,5.0,12.0,82,0.00,,,0.00,,2013-02-04 08:01:00,
2013-02-04 03:11:00,17.0,12.0,29.98,West,272,5.0,12.0,82,0.00,,,0.00,,2013-02-04 08:11:00,
2013-02-04 03:21:00,17.0,13.0,29.98,West,263,6.0,12.0,84,0.00,,,0.00,,2013-02-04 08:21:00,
2013-02-04 03:32:00,17.0,14.0,29.98,West,280,5.0,12.0,86,0.00,,,0.00,,2013-02-04 08:32:00,
2013-02-04 03:42:00,17.0,14.0,29.98,West,280,5.0,12.0,86,0.00,,,0.00,,2013-02-04 08:42:00,
2013-02-04 03:52:00,17.0,14.0,29.98,WNW,282,4.0,12.0,86,0.00,,,0.00,,2013-02-04 08:52:00,
2013-02-04 04:02:00,17.0,13.0,29.98,NW,308,5.0,16.0,85,0.00,,,0.00,,2013-02-04 09:02:00,
2013-02-04 04:11:00,17.0,13.0,29.98,NW,308,5.0,16.0,85,0.00,,,0.00,,2013-02-04 09:11:00,
2013-02-04 04:21:00,17.0,13.0,29.98,West,273,7.0,13.0,85,0.00,,,0.00,,2013-02-04 09:21:00,
2013-02-04 04:32:00,17.0,13.0,29.98,WNW,290,8.0,13.0,84,0.00,,,0.00,,2013-02-04 09:32:00,
2013-02-04 04:42:00,17.0,13.0,29.98,WNW,290,8.0,13.0,84,0.00,,,0.00,,2013-02-04 09:42:00,
2013-02-04 04:52:00,18.0,14.0,29.98,West,263,6.0,14.0,84,0.00,,,0.00,,2013-02-04 09:52:00,
2013-02-04 05:01:00,18.0,13.0,29.98,WNW,282,9.0,18.0,82,0.00,,,0.00,,2013-02-04 10:01:00,
2013-02-04 05:11:00,18.0,13.0,29.98,WNW,282,9.0,18.0,82,0.00,,,0.00,,2013-02-04 10:11:00,
2013-02-04 05:21:00,18.0,13.0,29.99,West,267,6.0,11.0,82,0.00,,,0.00,,2013-02-04 10:21:00,
2013-02-04 05:32:00,17.0,12.0,29.99,West,268,9.0,16.0,82,0.00,,,0.00,,2013-02-04 10:32:00,
2013-02-04 05:42:00,17.0,12.0,29.99,West,268,9.0,16.0,82,0.00,,,0.00,,2013-02-04 10:42:00,
2013-02-04 05:52:00,17.0,13.0,30.00,WNW,284,7.0,12.0,83,0.00,,,0.00,,2013-02-04 10:52:00,
2013-02-04 06:02:00,17.0,13.0,30.01,WSW,257,8.0,18.0,83,0.00,,,0.00,,2013-02-04 11:02:00,
2013-02-04 06:11:00,17.0,13.0,30.01,WSW,257,8.0,18.0,83,0.00,,,0.00,,2013-02-04 11:11:00,
2013-02-04 06:22:00,17.0,13.0,30.00,West,275,7.0,15.0,83,0.00,,,0.00,,2013-02-04 11:22:00,
2013-02-04 06:32:00,17.0,13.0,30.01,WSW,254,8.0,13.0,83,0.00,,,0.00,,2013-02-04 11:32:00,
2013-02-04 06:42:00,17.0,13.0,30.01,WSW,254,8.0,13.0,83,0.00,,,0.00,,2013-02-04 11:42:00,
2013-02-04 06:52:00,17.0,13.0,30.01,WNW,284,3.0,8.0,83,0.00,,,0.00,,2013-02-04 11:52:00,
2013-02-04 07:02:00,17.0,13.0,30.02,WNW,288,5.0,9.0,83,0.00,,,0.00,,2013-02-04 12:02:00,
2013-02-04 07:12:00,17.0,13.0,30.02,WNW,288,5.0,9.0,83,0.00,,,0.00,,2013-02-04 12:12:00,
2013-02-04 07:22:00,17.0,13.0,30.02,West,281,2.0,6.0,84,0.00,,,0.00,,2013-02-04 12:22:00,
2013-02-04 07:32:00,17.0,13.0,30.01,SW,229,0.0,8.0,84,0.00,,,0.00,,2013-02-04 12:32:00,
2013-02-04 07:42:00,17.0,13.0,30.01,SW,229,0.0,8.0,84,0.00,,,0.00,,2013-02-04 12:42:00,
2013-02-04 07:53:00,17.0,13.0,30.01,West,268,1.0,8.0,84,0.00,,,0.00,,2013-02-04 12:53:00,
2013-02-04 08:03:00,17.0,13.0,30.01,West,277,4.0,5.0,84,0.00,,,0.00,,2013-02-04 13:03:00,
2013-02-04 08:12:00,17.0,13.0,30.01,WSW,257,0.0,6.0,84,0.00,,,0.00,,2013-02-04 13:12:00,
2013-02-04 08:22:00,17.0,13.0,30.01,WSW,257,0.0,6.0,84,0.00,,,0.00,,2013-02-04 13:22:00,
2013-02-04 08:33:00,17.0,13.0,30.01,West,265,2.0,6.0,85,0.00,,,0.00,,2013-02-04 13:33:00,
2013-02-04 08:42:00,17.0,13.0,30.01,West,265,2.0,6.0,85,0.00,,,0.00,,2013-02-04 13:42:00,
2013-02-04 08:52:00,17.0,13.0,30.00,WSW,239,1.0,7.0,84,0.00,,,0.00,,2013-02-04 13:52:00,
2013-02-04 09:03:00,18.0,14.0,30.01,West,260,2.0,7.0,84,0.00,,,0.00,,2013-02-04 14:03:00,
2013-02-04 09:12:00,18.0,14.0,30.01,West,260,2.0,7.0,84,0.00,,,0.00,,2013-02-04 14:12:00,
2013-02-04 09:23:00,18.0,14.0,30.00,WNW,286,0.0,7.0,83,0.00,,,0.00,,2013-02-04 14:23:00,
2013-02-04 09:33:00,18.0,13.0,29.99,WSW,246,3.0,7.0,82,0.00,,,0.00,,2013-02-04 14:33:00,
2013-02-04 09:42:00,18.0,13.0,29.99,WSW,246,3.0,7.0,82,0.00,,,0.00,,2013-02-04 14:42:00,
2013-02-04 09:52:00,18.0,13.0,30.00,West,259,4.0,11.0,81,0.00,,,0.00,,2013-02-04 14:52:00,
2013-02-04 10:03:00,19.0,14.0,29.99,West,268,2.0,11.0,80,0.00,,,0.00,,2013-02-04 15:03:00,
2013-02-04 10:13:00,19.0,14.0,29.99,West,268,2.0,11.0,80,0.00,,,0.00,,2013-02-04 15:13:00,
2013-02-04 10:23:00,19.0,14.0,29.99,WSW,254,6.0,11.0,79,0.00,,,0.00,,2013-02-04 15:23:00,
2013-02-04 10:33:00,20.0,14.0,29.97,SSW,198,2.0,7.0,78,0.00,,,0.00,,2013-02-04 15:33:00,
2013-02-04 10:43:00,20.0,14.0,29.97,SSW,198,2.0,7.0,78,0.00,,,0.00,,2013-02-04 15:43:00,
2013-02-04 10:53:00,20.0,14.0,29.97,SW,216,3.0,11.0,76,0.00,,,0.00,,2013-02-04 15:53:00,
2013-02-04 11:03:00,21.0,14.0,29.96,WSW,252,4.0,11.0,75,0.00,,,0.00,,2013-02-04 16:03:00,
2013-02-04 11:11:00,21.0,14.0,29.96,WSW,252,4.0,11.0,75,0.00,,,0.00,,2013-02-04 16:11:00,
2013-02-04 11:23:00,22.0,15.0,29.96,SSW,196,3.0,10.0,73,0.00,,,0.00,,2013-02-04 16:23:00,
2013-02-04 11:33:00,22.0,14.0,29.95,SW,228,5.0,11.0,70,0.00,,,0.00,,2013-02-04 16:33:00,
2013-02-04 11:43:00,22.0,14.0,29.95,SW,228,5.0,11.0,70,0.00,,,0.00,,2013-02-04 16:43:00,
2013-02-04 11:52:00,23.0,14.0,29.94,SE,146,3.0,7.0,68,0.00,,,0.00,,2013-02-04 16:52:00,
2013-02-04 12:02:00,23.0,14.0,29.94,SSE,159,4.0,10.0,68,0.00,,,0.00,,2013-02-04 17:02:00,
2013-02-04 12:11:00,23.0,14.0,29.94,SSE,159,4.0,10.0,68,0.00,,,0.00,,2013-02-04 17:11:00,
2013-02-04 12:21:00,24.0,15.0,29.93,WSW,241,3.0,10.0,68,0.00,,,0.00,,2013-02-04 17:21:00,
2013-02-04 12:32:00,25.0,16.0,29.92,East,79,2.0,12.0,69,0.00,,,0.00,,2013-02-04 17:32:00,
2013-02-04 12:42:00,25.0,16.0,29.92,East,79,2.0,12.0,69,0.00,,,0.00,,2013-02-04 17:42:00,
2013-02-04 12:52:00,25.0,16.0,29.91,WSW,237,3.0,11.0,69,0.00,,,0.00,,2013-02-04 17:52:00,
2013-02-04 13:03:00,26.0,17.0,29.91,South,181,4.0,7.0,67,0.01,,,0.01,,2013-02-04 18:03:00,
2013-02-04 13:11:00,26.0,17.0,29.91,South,181,4.0,7.0,67,0.01,,,0.01,,2013-02-04 18:11:00,
2013-02-04 13:22:00,26.0,17.0,29.89,WSW,250,2.0,10.0,69,0.01,,,0.01,,2013-02-04 18:22:00,
2013-02-04 13:32:00,26.0,17.0,29.89,South,175,2.0,11.0,68,0.02,,,0.02,,2013-02-04 18:32:00,
2013-02-04 13:42:00,26.0,17.0,29.89,South,175,2.0,11.0,68,0.02,,,0.02,,2013-02-04 18:42:00,
2013-02-04 13:52:00,27.0,18.0,29.88,WSW,257,4.0,12.0,67,0.03,,,0.03,,2013-02-04 18:52:00,
2013-02-04 14:02:00,27.0,18.0,29.87,SSW,207,1.0,7.0,68,0.02,,,0.03,,2013-02-04 19:02:00,
2013-02-04 14:11:00,27.0,18.0,29.87,SSW,207,1.0,7.0,68,0.02,,,0.03,,2013-02-04 19:11:00,
2013-02-04 14:22:00,27.0,18.0,29.87,WNW,290,2.0,7.0,67,0.03,,,0.04,,2013-02-04 19:22:00,
2013-02-04 14:32:00,27.0,18.0,29.87,West,265,1.0,12.0,69,0.02,,,0.04,,2013-02-04 19:32:00,
2013-02-04 14:42:00,27.0,18.0,29.87,West,265,1.0,12.0,69,0.02,,,0.04,,2013-02-04 19:42:00,
2013-02-04 14:52:00,27.0,18.0,29.87,WSW,238,1.0,6.0,69,0.01,,,0.04,,2013-02-04 19:52:00,
2013-02-04 15:02:00,27.0,20.0,29.86,West,261,1.0,8.0,74,0.01,,,0.04,,2013-02-04 20:02:00,
2013-02-04 15:12:00,27.0,20.0,29.86,West,261,1.0,8.0,74,0.01,,,0.04,,2013-02-04 20:12:00,
2013-02-04 15:22:00,26.0,20.0,29.85,WSW,252,2.0,5.0,78,0.01,,,0.05,,2013-02-04 20:22:00,
2013-02-04 15:32:00,26.0,21.0,29.85,WSW,240,0.0,2.0,81,0.01,,,0.05,,2013-02-04 20:32:00,
2013-02-04 15:42:00,26.0,21.0,29.85,WSW,240,0.0,2.0,81,0.01,,,0.05,,2013-02-04 20:42:00,
2013-02-04 15:52:00,26.0,21.0,29.85,WSW,237,1.0,5.0,82,0.01,,,0.05,,2013-02-04 20:52:00,
2013-02-04 16:03:00,26.0,22.0,29.85,SW,236,0.0,3.0,84,0.01,,,0.05,,2013-02-04 21:03:00,
2013-02-04 16:11:00,26.0,22.0,29.85,SW,236,0.0,3.0,84,0.01,,,0.05,,2013-02-04 21:11:00,
2013-02-04 16:22:00,26.0,22.0,29.85,SW,236,1.0,3.0,85,0.00,,,0.05,,2013-02-04 21:22:00,
2013-02-04 16:32:00,26.0,23.0,29.84,SW,231,1.0,2.0,87,0.00,,,0.05,,2013-02-04 21:32:00,
2013-02-04 16:42:00,26.0,23.0,29.84,SW,231,1.0,2.0,87,0.00,,,0.05,,2013-02-04 21:42:00,
2013-02-04 16:52:00,26.0,23.0,29.83,SW,231,0.0,1.0,87,0.00,,,0.05,,2013-02-04 21:52:00,
2013-02-04 17:03:00,26.0,23.0,29.82,SW,231,0.0,2.0,88,0.00,,,0.05,,2013-02-04 22:03:00,
2013-02-04 17:12:00,26.0,23.0,29.82,SW,231,0.0,2.0,88,0.00,,,0.05,,2013-02-04 22:12:00,
2013-02-04 17:21:00,26.0,23.0,29.82,East,98,0.0,2.0,88,0.00,,,0.05,,2013-02-04 22:21:00,
2013-02-04 17:32:00,26.0,23.0,29.81,SE,143,0.0,2.0,89,0.00,,,0.05,,2013-02-04 22:32:00,
2013-02-04 17:42:00,26.0,23.0,29.81,SE,143,0.0,2.0,89,0.00,,,0.05,,2013-02-04 22:42:00,
2013-02-04 17:52:00,25.0,22.0,29.80,ESE,121,0.0,4.0,89,0.00,,,0.05,,2013-02-04 22:52:00,
2013-02-04 18:01:00,25.0,22.0,29.80,East,79,0.0,5.0,90,0.00,,,0.05,,2013-02-04 23:01:00,
2013-02-04 18:11:00,25.0,22.0,29.80,East,79,0.0,5.0,90,0.00,,,0.05,,2013-02-04 23:11:00,
2013-02-04 18:22:00,26.0,23.0,29.81,East,88,0.0,2.0,90,0.00,,,0.05,,2013-02-04 23:22:00,
2013-02-04 18:32:00,26.0,24.0,29.81,East,92,0.0,2.0,91,0.00,,,0.05,,2013-02-04 23:32:00,
2013-02-04 18:42:00,26.0,24.0,29.81,East,92,0.0,2.0,91,0.00,,,0.05,,2013-02-04 23:42:00,
2013-02-04 18:52:00,26.0,24.0,29.81,ENE,75,0.0,1.0,91,0.00,,,0.05,,2013-02-04 23:52:00,
2013-02-04 19:02:00,26.0,24.0,29.81,East,82,0.0,3.0,91,0.00,,,0.05,,2013-02-05 00:02:00,
2013-02-04 19:11:00,26.0,24.0,29.81,East,82,0.0,3.0,91,0.00,,,0.05,,2013-02-05 00:11:00,
2013-02-04 19:22:00,27.0,25.0,29.82,ENE,69,0.0,4.0,92,0.00,,,0.05,,2013-02-05 00:22:00,
2013-02-04 19:32:00,27.0,25.0,29.82,SE,138,0.0,5.0,92,0.00,,,0.05,,2013-02-05 00:32:00,
2013-02-04 19:42:00,27.0,25.0,29.82,SE,138,0.0,5.0,92,0.00,,,0.05,,2013-02-05 00:42:00,
2013-02-04 19:52:00,28.0,26.0,29.82,SSW,194,1.0,4.0,92,0.00,,,0.05,,2013-02-05 00:52:00,
2013-02-04 20:02:00,28.0,26.0,29.82,WSW,249,3.0,6.0,92,0.00,,,0.05,,2013-02-05 01:02:00,
2013-02-04 20:12:00,28.0,26.0,29.82,WSW,249,3.0,6.0,92,0.00,,,0.05,,2013-02-05 01:12:00,
2013-02-04 20:22:00,29.0,27.0,29.82,SW,227,6.0,8.0,93,0.00,,,0.05,,2013-02-05 01:22:00,
2013-02-04 20:32:00,29.0,27.0,29.82,West,261,8.0,13.0,93,0.00,,,0.05,,2013-02-05 01:32:00,
2013-02-04 20:42:00,29.0,27.0,29.82,West,261,8.0,13.0,93,0.00,,,0.05,,2013-02-05 01:42:00,
2013-02-04 20:52:00,29.0,27.0,29.82,WNW,285,3.0,8.0,92,0.00,,,0.05,,2013-02-05 01:52:00,
2013-02-04 21:01:00,29.0,27.0,29.82,WSW,255,2.0,6.0,92,0.00,,,0.05,,2013-02-05 02:01:00,
2013-02-04 21:11:00,29.0,27.0,29.82,WSW,255,2.0,6.0,92,0.00,,,0.05,,2013-02-05 02:11:00,
2013-02-04 21:22:00,29.0,27.0,29.82,West,274,3.0,7.0,93,0.00,,,0.05,,2013-02-05 02:22:00,
2013-02-04 21:32:00,30.0,28.0,29.82,SW,225,4.0,7.0,93,0.00,,,0.05,,2013-02-05 02:32:00,
2013-02-04 21:42:00,30.0,28.0,29.82,SW,225,4.0,7.0,93,0.00,,,0.05,,2013-02-05 02:42:00,
2013-02-04 21:52:00,30.0,28.0,29.82,West,271,4.0,9.0,93,0.00,,,0.05,,2013-02-05 02:52:00,
2013-02-04 22:02:00,30.0,28.0,29.85,WSW,238,2.0,5.0,93,0.00,,,0.05,,2013-02-05 03:02:00,
2013-02-04 22:11:00,30.0,28.0,29.85,WSW,238,2.0,5.0,93,0.00,,,0.05,,2013-02-05 03:11:00,
2013-02-04 22:21:00,30.0,28.0,29.84,WSW,250,3.0,7.0,93,0.00,,,0.05,,2013-02-05 03:21:00,
2013-02-04 22:32:00,30.0,28.0,29.84,West,273,7.0,9.0,93,0.00,,,0.05,,2013-02-05 03:32:00,
2013-02-04 22:42:00,30.0,28.0,29.84,West,273,7.0,9.0,93,0.00,,,0.05,,2013-02-05 03:42:00,
2013-02-04 22:52:00,30.0,28.0,29.84,SW,228,3.0,8.0,93,0.00,,,0.05,,2013-02-05 03:52:00,
2013-02-04 23:01:00,31.0,29.0,29.84,SSW,207,2.0,9.0,93,0.00,,,0.05,,2013-02-05 04:01:00,
2013-02-04 23:11:00,31.0,29.0,29.84,SSW,207,2.0,9.0,93,0.00,,,0.05,,2013-02-05 04:11:00,
2013-02-04 23:22:00,31.0,29.0,29.83,SSW,200,5.0,11.0,93,0.00,,,0.05,,2013-02-05 04:22:00,
2013-02-04 23:32:00,31.0,29.0,29.83,SW,222,5.0,9.0,93,0.00,,,0.05,,2013-02-05 04:32:00,
2013-02-04 23:42:00,31.0,29.0,29.83,SW,222,5.0,9.0,93,0.00,,,0.05,,2013-02-05 04:42:00,
2013-02-04 23:52:00,31.0,29.0,29.82,WSW,254,3.0,8.0,93,0.00,,,0.05,,2013-02-05 04:52:00,